RS28S (SXC3-214 MIET-A*)

Last updated on Wed Jul 12 2023 00:03:08 GMT+0000 (Coordinated Universal Time)

1 53377U 22096H 23192.43353886 .00018085 00000+0 50546-3 0 9995 2 53377 97.4123 98.4602 0003367 84.1775 275.9853 15.36740362 51386
UTC large
Height (km)
Speed (km/s)
/
Latitude / Longitude
Inclination (degrees)
Orbital Period (minutes)
Azimuth
Elevation
Range (km)
Doppler Factor

Next 0 passes for location: London (51.5072 / 0.1276)

Sorry there are no passes over London.
RS28S (SXC3-214 MIET-A*)